Погода в Тынде

Погода в Тынде : погода сейчас, прогноз погоды и архив. Всё, что Вы хотите узнать о погоде в Тынде!

Хотите узнать прогноз погоды в Тынде? Тогда Вам сюда: Погода в Тынде

Поиск расширенной информации на нашем сайте:

Другие новости

Новости СМИ2

Главная страница сайта

Новости сайта

03.07.2017

Напоминаем, что на нашем специализированном сайте Метеоцентр.Азия вы можете получить высокодетализированные автоматические прогнозы погоды по пунктам России, СНГ и мира в авиационном формате (включающие направление и скорость ветра, видимость, явления погоды, количество и форму облачности, нижнюю и верхнюю границу облачности).


Погода в Тынде - сегодня

Время (UTC), дата Ветер
(°,м/с) 
Видим.   Явления Облачность Т
(°С)
Тd
(°С)
f(%) Тe
(°С)
Pmin
(гПа)
dP
(гПа)
Po
(мм)
O2
(г/м3)
Тmin Tmax R s Состояние
почвы
21 21.05.18 050 (СВ) 20000 м  {ливн. осадки}  10/6 600 м верхняя 
[Sc|Ci ing]
+9.5 +8.6 94 +12  994.7  -3.8  700  271           
00 22.05.18 100 (В) 20000 м  {ливн. осадки}  10/8 600 м кучево-дожд., верхняя 
[Cb cap|Ci fib]
+15 +9.9 72 +18  990  -3.3  698  265  +9.1      влажная 
03 22.05.18 180 (Ю) 20000 м    10/10 600 м кучево-дожд. 
[Cb cap]
+18.6 +6.3 45 +20  987.4  -1.8  697  262           
06 22.05.18 230 (ЮЗ) 20000 м    10/10 600 м кучево-дожд. 
[Cb cap]
+14.3 +7.5 64 +14  985.7  -2.4  695  265           
12 22.05.18 220 (ЮЗ) 20000 м  {ливн. осадки}  10/10 600 м кучево-дожд. 
[Cb cap]
+4.3 +2.9 91 +4  992.2  0.9  698  276    +20.1     
15 22.05.18 230 (ЮЗ) 20000 м  слаб. ливневой дождь  10/10 600 м кучево-дожд. 
[Cb cap]
+3.7 +1.2 84 +3  992.7  0.3  698  277           
18 22.05.18 тихо ()   20000 м  {ливн. осадки}  10/10 600 м кучево-дожд. 
[Cb cap]
+2.8 +0.6 85 +3  994  1.1  699  278           
21 22.05.18 230 (ЮЗ) 20000 м    6/1 600 м верхняя 
[Sc|Ci fib]
+1.2 +0.4 94 +2  995.8  1.3  700  280           
00 23.05.18 140 (ЮВ) 20000 м    3/3 600 м 
[Cu med, cong]
+7.8 -1.2 53 +9  995.4  1.1  701  274  +0.7    0.0    влажная 
03 23.05.18 200 (Ю) 20000 м    10/4 600 м верхняя 
[Cu med, cong|Ci fib]
+12 -3.3 34 +12  994.2  -0.3  700  270           
06 23.05.18 110 (В) 20000 м    9/6 600 м кучево-дожд., верхняя 
[Cb cap|Ci fib]
+13.2 -6 26 +14  993.8  -0.1  700  270           
09 23.05.18 090 (В) 20000 м    10/8 600 м кучево-дожд., верхняя 
[Cb cap|Ci fib]
+12.8 -7.1 24 +14  994.6  0.7  701  270           
15 23.05.18 080 (В) 20000 м    6/0 верхняя 
[Ci fib]
+5.5 -0.3 66 +6  999.5  1.4  703  278           
18 23.05.18 020 (С) 20000 м    ясно 
+0.2 -1.7 87 +1  1001.6  0.8  704  283           
21 23.05.18 250 (З) 20000 м    8/3 600 м кучево-дожд., верхняя 
[Cb cap|Ci fib]
-0.6 -2.2 89 1003.3  1.4  705  285           
00 24.05.18 280 (З) 20000 м    8/0 средняя 
[Ac trans]
+7.7 +0.1 59 +8  1001.7  0.3  705  276  -1.4        влажная 
03 24.05.18 020 (С) 20000 м    10/10 600 м 
[Sc]
+14 -1.6 34 +15  1000.3  -0.1  705  270           
06 24.05.18 020 (С) 20000 м    10/10 600 м кучево-дожд. 
[Cb cap]
+14.3 +1.9 43 +15  1001.2  706  270           
09 24.05.18 350 (С) 20000 м    4/1 600 м средняя 
[Sc diur, vesp|Ac trans]
+15.8 +1.7 38 +17  1001.8  0.8  706  269           
15 24.05.18 260 (З) 20000 м    4/0 средняя 
[Ac trans]
+8.5 +3.6 71 +8  1006.1  1.2  708  276           
18 24.05.18 270 (З) н/о    н/о 
+6.1 +2.7 79 +6  1007.5  0.8  709  279           
21 24.05.18 250 (З) 20000 м    6/4 600 м средняя 
[Sc|Ac trans]
+5.2 +1.8 79 +4  1009.1  1.3  710  280           
00 25.05.18 240 (ЮЗ) 20000 м    10/4 600 м верхняя 
[Sc|Cs]
+13.3 +4.4 55 +13  1008.1  0.8  710  272  +4.5        сухая 
03 25.05.18 060 (СВ) 20000 м    9/8 600 м кучево-дожд., верхняя 
[Cb cap|Ci fib]
+19.6 +1.8 31 +21  1006.2  -0.5  710  267           
06 25.05.18 360 (С) 20000 м  {ливн. осадки}  10/10 600 м кучево-дожд. 
[Cb cap]
+19.3 +2.1 32 +20  1005.7  -0.5  710  267           
Время (UTC), дата Ветер
(°,м/с) 
Видим.   Явления Облачность Т
(°С)
Тd
(°С)
f(%) Тe
(°С)
Pmin
(гПа)
dP
(гПа)
Po
(мм)
O2
(г/м3)
Тmin Tmax R s Состояние
почвы

Для получения пояснительной информации подведите курсор к названию столбца.

ПОГОДА в Тынде - архив

Всё, что Вы хотите узнать о погоде в Тынде - удобно и подробно!

Выберите нужную дату (начиная с 1 января 2015* года) и нажмите кнопку "Найти".
Будут отображены архивные сводки погоды по пункту Тында, начиная с указанной даты.


Отображать данные в формате CSV (для использования в таблицах Excel)


Внимание! Наш архив погоды предназначен исключительно для личного некоммерческого использования в познавательных целях. Если Вам необходимы официальные справки о состоянии погоды (для производственных, юридических, коммерческих и т.п. целей), обращайтесь в органы Росгидромета.

*Примечание: данная дата относится к архиву по метеостанциям СССР (Россия, СНГ, Балтия).
Архив по метеостанциям Зарубежной Европы и Азии (кроме Китая) хранится 10 дней, по другим регионам земного шара (Китай, Африка, Америка, Австралия, Океания) - 1 день.

Тында - район местоположения метеостанции


Название, широта, долгота, высота метеостанции:
Тында 55.2°ш. 124.7°д. 528 м над ур. моря [Российская Федерация]

Дополнительная информация

В oтличие oт бoльшинства пoгoдных сайтoв мы публикуем пoдрoбную метеoинфoрмацию в детальнoм прoфессиoнальнoм фoрмате.

Характеристики температуры и влажнoсти вoздуха измеряются на высoте 2 м в тени вдали oт зданий и деревьев.
Скoрoсть ветра измеряется на высoте 10 м (на урoвне рoста челoвека скoрoсть ветра ниже в 1.5-2 раза). Если метеoстанция нахoдится в гoрoде или в лесу, тo скoрoсть ветра занижена на 2-4 м/с пo сравнению с oткрытым местoм. Скoрoсть ветра над акватoриями крупных рек и oзёр, а также на вершинах хoлмoв на 2-5 м/с выше, чем в oбычных услoвиях.
Атмoсфернoе давление в разных тoчках местнoсти мoжет значительнo oтличаться oт давления на метеoстанции, в зависимoсти oт услoвий рельефа (при пoдъёме на 10 м давление пoнижается примернo на 1 мм рт.ст.).